Wind_Speed
13 13 13 13 14 12 12 13 12 12 11 10 9 9 8 7 7 6 6 7 6 6 5 5 4 4 4 3 3 3 3 3 4 4 4 4 4 5 5 5 5 5 5 5 5 4 4 4 3
13 14 14 15 14 12 12 12 12 11 11 11 10 9 8 8 7 7 6 6 6 6 5 4 4 4 3 3 2 2 3 3 3 3 3 3 3 4 4 5 5 6 5 5 5 4 4 4 4
13 13 14 14 13 12 12 13 12 12 12 11 11 9 9 8 8 8 7 7 6 6 6 5 4 4 3 3 3 2 2 2 3 3 2 3 3 4 5 5 5 5 6 6 5 5 5 5 4
13 13 13 12 13 13 13 13 13 13 12 11 10 9 9 8 8 8 8 7 7 6 6 5 5 4 4 3 3 3 3 2 2 2 2 3 4 4 5 5 5 5 6 6 6 5 5 5 5
13 14 13 12 12 13 12 12 13 13 12 11 10 10 10 10 9 9 8 7 7 6 5 5 5 4 4 3 3 3 3 2 2 2 2 2 2 3 4 4 5 5 6 6 6 6 5 6 6
13 14 12 11 12 12 11 11 12 11 11 11 11 10 10 11 10 9 8 7 7 6 5 5 5 5 5 4 3 2 2 2 2 2 2 2 2 2 3 4 6 5 5 5 5 6 6 6 6
13 13 12 12 11 12 12 11 11 11 11 10 10 10 10 10 10 9 9 7 6 6 5 5 5 6 5 5 4 3 2 2 2 2 2 2 2 2 2 3 4 4 4 4 5 6 7 7 6
12 12 11 11 11 11 11 11 11 11 10 10 10 9 9 9 9 9 9 8 7 6 6 5 5 6 6 5 4 3 2 1 2 2 2 3 2 2 2 2 3 4 4 4 5 6 6 7 7
11 11 10 11 10 10 10 11 11 11 11 11 10 9 8 8 8 8 8 7 7 6 6 5 5 5 5 5 3 3 2 1 1 2 2 3 3 3 3 3 2 3 4 4 5 6 6 7 7
10 9 9 10 11 10 11 11 11 11 11 11 11 10 8 8 7 7 7 7 6 5 5 5 5 5 5 4 4 3 2 1 1 2 3 3 4 4 4 3 3 3 4 4 5 6 6 7 8
8 9 9 9 10 10 10 11 11 11 10 10 10 10 9 8 8 6 6 6 6 5 4 5 5 5 4 4 4 4 3 2 1 1 3 3 4 4 4 4 4 4 4 4 5 6 6 6 7
6 8 9 8 8 8 9 9 9 9 9 10 10 9 8 8 8 7 6 6 6 5 5 5 5 5 5 5 5 4 4 3 1 1 2 3 3 4 4 5 5 6 5 6 6 7 6 6 7
5 6 6 7 7 7 8 8 8 8 8 9 9 9 8 8 8 7 7 6 6 5 5 5 5 6 6 6 6 5 5 4 2 1 2 3 3 4 4 4 5 6 6 7 7 6 6 6 6
4 5 6 6 6 6 7 8 8 7 7 7 8 8 8 8 8 7 7 6 6 6 5 6 6 6 6 6 6 6 5 5 5 3 3 4 4 5 5 6 6 7 7 7 7 7 7 7 7
3 4 5 6 5 6 6 7 7 7 6 7 7 8 8 8 8 8 7 7 6 6 6 6 7 7 7 6 6 6 6 5 5 5 4 4 5 5 6 6 7 7 7 7 7 8 8 8 8
3 4 5 6 6 6 6 7 7 7 7 7 8 8 8 8 7 7 7 7 7 6 7 7 7 7 7 7 7 6 6 6 6 6 5 5 5 6 6 7 7 8 8 9 9 9 9 9 9
3 3 3 5 5 6 6 5 6 6 6 7 8 8 8 7 7 7 7 7 7 7 7 7 7 7 8 8 7 7 7 7 7 7 7 6 7 7 7 7 8 8 9 9 10 10 10 10 10
2 3 4 4 5 6 7 6 6 6 6 7 7 8 8 7 8 8 8 8 8 8 8 7 7 8 8 8 8 8 8 7 7 7 8 7 7 8 8 7 8 9 9 10 10 11 11 12 12
2 4 5 5 5 6 6 7 6 6 6 6 7 7 7 8 9 9 9 9 9 8 8 8 8 8 8 8 9 9 8 8 8 8 8 8 8 8 8 8 8 9 10 10 11 11 12 12 13
4 4 5 5 5 6 6 7 7 6 7 8 7 6 8 8 9 9 10 10 10 9 9 8 8 9 9 9 9 10 10 9 9 8 9 9 9 9 9 9 9 10 10 11 11 12 12 13 14
5 5 5 6 5 6 6 7 8 8 8 8 8 8 9 9 10 10 10 11 11 10 10 9 9 9 10 10 10 11 11 10 10 10 10 9 10 10 10 10 10 11 11 12 12 12 13 13 14
6 6 6 6 6 7 6 7 9 8 8 9 10 10 10 10 10 10 10 10 11 10 10 10 9 9 10 12 12 12 12 11 10 10 10 10 11 11 11 11 10 11 11 12 12 13 13 14 15
7 7 7 8 8 8 8 7 9 9 9 10 10 11 11 10 10 10 10 10 10 10 10 10 10 11 12 12 12 12 12 12 12 11 11 11 11 11 11 12 11 11 12 12 13 13 14 15 15
8 8 7 7 8 7 8 8 9 11 10 10 10 11 10 10 10 10 10 10 10 11 11 11 12 12 12 13 13 13 13 13 12 12 12 12 12 12 13 13 13 13 13 13 14 14 15 15 16
9 8 8 8 8 8 9 8 10 10 10 10 10 11 10 10 10 10 11 11 11 11 12 12 13 13 13 14 14 13 14 13 13 13 13 13 13 13 13 13 13 14 14 15 15 16 16 17 17
10 9 9 9 9 9 10 10 11 10 11 11 11 10 10 10 11 11 11 11 11 12 12 13 13 14 14 14 14 13 14 14 14 13 13 13 13 13 13 13 14 14 15 16 17 17 18 19 19
12 11 10 10 10 10 11 12 12 11 11 11 11 10 10 11 11 11 12 11 12 12 13 14 14 15 15 14 14 14 14 14 14 14 14 13 13 13 14 14 14 14 15 17 18 18 19 20 20
13 13 12 11 11 11 12 12 13 12 12 13 12 12 12 12 12 12 12 12 13 13 14 15 16 16 15 15 15 15 15 15 15 15 15 15 15 14 14 15 15 16 16 18 19 20 20 20 20
14 14 14 13 13 12 12 13 14 13 13 13 13 14 14 13 13 13 14 14 14 14 15 15 16 16 16 16 16 16 16 16 16 16 16 16 16 16 15 16 16 16 17 18 19 20 21 21 21
15 14 14 14 14 14 13 15 15 14 14 14 14 14 14 13 13 14 16 16 15 15 16 16 16 16 17 17 17 17 17 17 17 17 17 17 17 17 18 18 17 17 19 19 20 20 21 21 21
Wind_Direction
83 79 73 72 68 69 74 75 76 77 79 79 80 83 86 85 85 81 77 75 75 77 83 83 89 96 92 98 118 127 130 141 143 146 152 168 175 179 176 174 180 183 183 175 168 173 174 168 163
82 77 71 69 71 69 71 72 71 72 71 70 71 74 81 81 83 83 80 77 75 76 77 74 76 83 85 83 103 134 139 139 144 147 156 171 179 185 184 186 186 189 190 188 180 181 179 180 183
80 73 68 67 70 72 73 70 66 65 67 66 67 71 75 76 81 82 82 79 74 72 69 66 71 77 79 74 79 119 137 132 129 129 141 166 163 168 172 187 194 193 191 190 186 189 189 188 191
75 71 67 66 67 72 74 70 66 63 63 63 65 67 67 73 77 80 85 83 80 72 66 62 64 67 70 68 69 107 134 133 126 129 138 160 159 164 166 172 183 184 191 195 195 199 198 200 206
73 71 67 65 66 69 71 71 67 63 61 61 65 65 68 72 76 79 78 79 78 73 65 59 64 63 59 64 77 111 124 139 142 134 141 152 158 163 175 178 175 182 193 197 201 206 209 210 212
72 70 69 66 64 67 69 68 65 64 61 61 65 66 71 74 76 75 72 71 68 67 65 61 64 60 58 60 78 105 124 136 147 156 145 136 144 156 175 179 186 191 200 211 215 213 211 208 209
72 71 66 65 65 65 68 67 66 66 62 60 63 66 70 71 68 72 70 68 65 63 63 61 60 58 54 53 64 79 105 129 148 168 172 165 162 159 165 181 191 202 211 220 225 225 211 208 207
73 69 61 63 66 65 65 63 62 61 60 59 63 67 65 64 64 66 69 66 62 61 61 60 54 48 45 46 55 58 82 138 167 180 184 184 183 185 196 203 218 227 229 229 228 225 222 218 218
73 69 62 64 66 65 64 62 59 58 58 58 59 61 58 56 60 67 68 64 61 60 57 54 47 44 43 41 43 42 47 68 175 201 203 195 197 203 215 231 243 238 237 240 233 227 228 226 227
72 70 63 66 65 62 61 60 59 59 57 57 56 55 55 53 53 60 63 62 56 54 52 47 41 34 34 36 35 36 39 47 214 232 226 217 217 220 218 228 237 240 242 248 236 233 227 227 233
69 64 65 66 62 60 60 59 62 57 52 50 48 47 48 49 47 47 49 47 48 44 38 35 31 28 27 30 27 30 26 10 262 232 224 220 226 230 234 235 235 238 240 239 237 235 228 229 238
69 65 64 63 57 56 55 53 55 53 47 44 41 42 43 42 38 36 36 41 41 35 26 20 24 23 20 20 21 20 17 9 331 242 233 242 242 239 243 247 238 241 244 245 244 237 237 245 248
71 63 59 55 52 51 45 41 41 41 41 39 36 36 39 32 30 33 34 32 32 27 21 16 17 13 8 6 7 7 5 6 4 273 265 269 258 252 246 255 247 242 247 249 250 255 257 256 254
63 52 45 43 44 41 39 36 28 29 32 32 29 27 26 24 25 27 24 24 24 20 13 10 10 5 360 360 358 357 354 351 351 333 302 274 269 265 261 257 251 246 245 246 253 260 260 260 258
63 44 29 26 26 24 28 28 24 24 24 19 15 15 14 17 17 17 16 15 15 15 11 5 360 357 353 353 351 350 346 343 337 331 317 291 284 275 260 252 251 254 252 253 259 261 261 266 268
30 29 20 10 10 11 16 17 14 17 12 7 4 3 5 8 10 11 10 7 10 8 3 358 352 348 344 342 340 340 336 330 324 321 320 307 300 294 278 264 257 255 254 256 260 262 263 266 267
355 2 351 353 355 357 4 3 359 4 4 3 358 355 355 360 0 1 0 360 1 356 352 347 345 341 338 335 331 332 331 327 320 318 317 311 303 292 287 277 274 274 272 267 265 265 267 267 269
326 341 335 333 334 343 350 353 352 360 1 358 352 347 345 351 352 355 354 352 352 347 344 342 339 336 333 331 328 326 326 325 319 313 313 310 302 296 293 284 280 277 274 270 268 267 266 268 270
303 328 323 323 332 342 344 352 351 349 351 345 343 346 342 343 345 346 345 343 344 341 339 341 341 338 336 334 330 325 323 320 315 309 307 303 300 295 291 286 284 281 276 270 269 268 269 270 271
294 315 315 319 327 331 334 343 346 341 340 341 342 343 341 335 334 336 339 339 338 342 338 337 339 336 331 328 329 326 322 318 315 310 306 303 301 297 292 287 284 285 282 275 272 271 270 271 272
282 295 304 307 316 322 326 337 337 336 334 330 332 331 329 324 326 330 332 333 334 339 337 335 334 333 327 322 321 322 323 321 317 312 307 301 297 295 292 286 282 282 280 277 276 272 271 273 275
274 282 295 301 312 312 309 317 320 320 321 325 327 327 324 321 320 325 327 328 329 331 330 332 329 328 328 326 323 321 322 321 318 314 309 303 298 296 292 289 284 282 279 275 275 276 276 278 278
268 280 290 295 304 305 302 308 310 313 312 316 321 321 322 319 319 322 324 325 326 328 328 326 324 326 326 326 327 323 320 318 315 311 308 305 302 296 294 294 291 286 282 279 278 278 280 282 283
268 276 291 302 307 304 297 303 302 307 310 310 315 319 317 319 318 317 319 322 325 326 327 325 323 322 322 321 321 320 319 318 315 313 308 305 300 295 291 291 290 289 285 282 281 281 282 283 284
270 281 296 302 297 293 293 297 294 302 304 307 314 319 316 315 319 318 319 320 320 321 322 324 326 325 323 321 318 318 317 318 317 314 309 305 302 298 293 291 288 287 286 284 283 283 284 284 284
265 269 274 281 284 291 296 294 294 300 302 305 312 316 316 315 315 319 321 319 319 320 320 322 325 325 325 322 318 318 319 318 317 318 317 311 307 305 301 295 290 288 287 287 287 287 285 284 284
262 267 268 275 286 295 291 292 292 298 301 303 308 313 313 313 313 314 315 316 319 320 319 320 321 322 324 322 319 318 320 320 319 319 317 313 308 306 303 302 298 295 292 291 290 289 288 285 284
257 264 269 273 280 284 290 292 290 292 294 298 302 306 310 310 309 310 312 313 316 316 316 316 317 318 319 318 317 315 316 317 317 315 314 312 308 304 301 302 301 298 297 295 292 291 289 289 285
261 263 265 268 271 275 282 283 286 288 290 293 295 298 302 305 306 309 310 312 313 314 314 313 314 316 317 316 315 314 315 316 315 314 313 310 307 303 303 302 300 298 298 299 297 296 292 292 289
258 259 264 268 274 278 279 282 284 285 287 288 290 292 295 299 301 304 307 309 310 311 312 311 310 313 315 315 314 314 314 313 314 313 312 309 306 302 302 303 300 298 298 299 300 297 295 294 293
Height
5907 5907 5906 5906 5906 5907 5904 5903 5902 5900 5899 5898 5896 5896 5895 5895 5895 5897 5893 5891 5891 5890 5890 5889 5889 5889 5888 5887 5887 5887 5887 5886 5886 5886 5886 5886 5886 5886 5886 5887 5887 5888 5889 5889 5889 5890 5890 5891 5891
5909 5909 5909 5908 5908 5908 5906 5904 5903 5901 5900 5898 5897 5897 5896 5895 5895 5894 5893 5892 5892 5891 5891 5890 5890 5889 5889 5888 5888 5887 5887 5886 5886 5886 5885 5885 5885 5884 5885 5886 5886 5887 5888 5889 5889 5889 5890 5890 5891
5911 5910 5911 5910 5909 5908 5907 5905 5904 5902 5901 5899 5899 5898 5897 5896 5895 5894 5894 5893 5893 5892 5892 5891 5890 5890 5889 5889 5888 5887 5887 5886 5886 5886 5885 5885 5885 5884 5885 5885 5886 5887 5888 5888 5889 5889 5890 5890 5890
5912 5913 5913 5913 5910 5909 5908 5906 5905 5903 5902 5901 5900 5899 5897 5897 5896 5895 5894 5894 5894 5893 5892 5892 5891 5891 5890 5889 5888 5887 5887 5886 5886 5886 5886 5885 5885 5885 5885 5885 5885 5886 5887 5888 5888 5889 5889 5890 5890
5914 5914 5915 5914 5912 5911 5909 5908 5906 5905 5904 5902 5901 5900 5899 5898 5897 5896 5895 5895 5894 5894 5893 5893 5892 5891 5890 5889 5888 5887 5887 5887 5886 5886 5886 5885 5885 5885 5885 5886 5886 5886 5887 5887 5888 5888 5889 5889 5890
5917 5917 5918 5916 5914 5912 5911 5909 5908 5907 5905 5904 5903 5902 5900 5899 5898 5897 5896 5896 5895 5894 5894 5893 5892 5891 5890 5889 5888 5888 5887 5887 5886 5886 5886 5886 5886 5886 5886 5885 5886 5886 5887 5887 5887 5888 5888 5889 5890
5919 5919 5918 5917 5916 5914 5913 5911 5909 5908 5907 5906 5904 5903 5901 5900 5899 5898 5897 5897 5896 5895 5894 5894 5893 5892 5891 5890 5888 5888 5887 5887 5886 5886 5886 5886 5886 5886 5886 5886 5886 5886 5886 5886 5887 5887 5888 5888 5889
5920 5921 5920 5919 5917 5916 5914 5912 5911 5909 5908 5907 5906 5904 5903 5901 5900 5899 5898 5897 5897 5896 5895 5894 5893 5892 5891 5890 5889 5888 5887 5887 5886 5886 5886 5886 5886 5886 5886 5886 5886 5886 5886 5886 5886 5886 5887 5888 5888
5922 5924 5922 5920 5919 5917 5915 5914 5912 5911 5909 5908 5906 5905 5904 5903 5901 5900 5899 5898 5898 5897 5896 5895 5894 5893 5892 5890 5889 5888 5887 5887 5886 5886 5886 5885 5885 5886 5886 5886 5885 5885 5885 5885 5885 5886 5886 5887 5887
5924 5924 5923 5921 5920 5918 5917 5915 5914 5912 5911 5910 5908 5907 5905 5904 5902 5901 5900 5899 5898 5897 5896 5896 5894 5893 5892 5891 5889 5888 5887 5886 5886 5885 5885 5885 5885 5885 5885 5885 5885 5884 5884 5884 5884 5885 5885 5885 5886
5924 5924 5923 5921 5921 5919 5918 5917 5915 5914 5913 5911 5910 5908 5906 5905 5903 5902 5901 5900 5899 5898 5897 5896 5895 5894 5892 5891 5890 5888 5887 5886 5885 5884 5884 5884 5884 5884 5884 5884 5884 5883 5883 5883 5884 5884 5883 5884 5884
5925 5924 5923 5923 5922 5921 5919 5918 5917 5916 5914 5913 5911 5909 5907 5906 5905 5903 5902 5901 5900 5899 5898 5896 5895 5894 5893 5891 5890 5889 5887 5886 5885 5884 5884 5883 5883 5883 5883 5883 5883 5883 5882 5882 5883 5883 5883 5883 5883
5926 5925 5924 5924 5923 5922 5921 5919 5918 5917 5915 5914 5912 5910 5909 5907 5905 5904 5903 5902 5900 5899 5898 5897 5895 5894 5893 5891 5890 5889 5887 5886 5884 5884 5884 5883 5883 5882 5882 5882 5882 5882 5882 5882 5882 5882 5882 5882 5882
5927 5926 5925 5924 5924 5923 5921 5920 5919 5917 5916 5915 5913 5911 5909 5908 5906 5905 5903 5902 5901 5899 5898 5897 5895 5894 5893 5891 5890 5888 5887 5886 5884 5884 5883 5882 5882 5881 5881 5881 5881 5881 5880 5880 5880 5880 5880 5880 5880
5927 5927 5926 5925 5924 5923 5922 5921 5919 5918 5916 5915 5914 5912 5910 5908 5907 5905 5904 5902 5901 5900 5898 5897 5895 5894 5893 5891 5890 5888 5887 5885 5884 5883 5883 5882 5881 5880 5880 5880 5879 5879 5879 5879 5879 5879 5879 5878 5879
5928 5928 5928 5926 5924 5923 5924 5922 5920 5918 5917 5915 5914 5912 5911 5909 5907 5906 5904 5903 5901 5900 5898 5897 5895 5893 5892 5891 5889 5888 5886 5885 5884 5883 5882 5881 5880 5879 5878 5878 5878 5877 5877 5878 5878 5877 5877 5877 5877
5929 5929 5928 5927 5925 5923 5923 5921 5920 5918 5917 5915 5914 5912 5911 5909 5908 5906 5904 5903 5901 5899 5898 5896 5894 5893 5891 5890 5888 5887 5885 5884 5883 5881 5880 5879 5878 5878 5877 5877 5876 5876 5876 5875 5875 5875 5875 5875 5875
5929 5929 5928 5927 5925 5924 5922 5921 5920 5918 5917 5915 5914 5912 5911 5909 5908 5906 5904 5902 5901 5899 5897 5895 5893 5892 5890 5889 5887 5885 5884 5882 5881 5880 5879 5878 5877 5876 5875 5875 5874 5874 5874 5873 5873 5873 5873 5873 5872
5928 5928 5927 5926 5925 5923 5922 5921 5919 5918 5916 5915 5913 5912 5910 5909 5907 5905 5904 5902 5900 5898 5896 5894 5892 5890 5889 5887 5886 5884 5883 5881 5880 5878 5877 5876 5875 5874 5873 5873 5872 5872 5871 5871 5871 5871 5870 5870 5869
5927 5927 5926 5925 5924 5923 5922 5921 5919 5917 5916 5914 5913 5911 5910 5908 5907 5905 5903 5901 5899 5896 5894 5893 5891 5889 5888 5886 5884 5883 5881 5879 5878 5877 5875 5874 5873 5872 5871 5871 5870 5869 5869 5869 5868 5868 5868 5867 5866
5926 5926 5925 5924 5924 5923 5922 5921 5919 5917 5915 5914 5912 5910 5909 5907 5906 5904 5902 5900 5898 5895 5893 5892 5890 5889 5887 5885 5883 5881 5879 5878 5876 5875 5873 5872 5871 5870 5869 5868 5867 5867 5866 5866 5866 5865 5865 5864 5863
5925 5924 5924 5923 5923 5922 5922 5922 5919 5916 5915 5913 5911 5909 5908 5906 5904 5903 5901 5899 5897 5895 5892 5891 5889 5888 5886 5883 5881 5879 5878 5876 5874 5872 5871 5870 5868 5867 5866 5866 5865 5864 5864 5863 5863 5862 5861 5861 5860
5922 5922 5922 5922 5921 5922 5921 5920 5919 5915 5914 5912 5910 5908 5906 5905 5903 5901 5900 5898 5895 5893 5892 5890 5888 5886 5884 5882 5880 5878 5876 5874 5872 5870 5868 5867 5866 5864 5864 5863 5862 5861 5861 5860 5859 5859 5858 5858 5857
5920 5920 5920 5920 5920 5921 5919 5919 5918 5914 5912 5911 5909 5907 5905 5903 5901 5900 5898 5896 5894 5892 5890 5888 5887 5885 5883 5880 5878 5876 5874 5872 5870 5868 5866 5865 5863 5862 5861 5860 5859 5858 5857 5857 5856 5855 5855 5854 5853
5918 5920 5921 5921 5921 5920 5917 5916 5915 5912 5911 5909 5907 5905 5903 5902 5900 5898 5896 5894 5892 5891 5889 5887 5885 5883 5880 5878 5876 5874 5872 5870 5868 5866 5864 5862 5861 5859 5858 5857 5856 5855 5854 5853 5852 5851 5850 5849 5848
5915 5917 5919 5919 5919 5918 5915 5913 5912 5910 5908 5907 5905 5903 5902 5900 5898 5897 5895 5893 5891 5889 5887 5885 5883 5881 5878 5876 5874 5871 5869 5867 5865 5863 5861 5859 5857 5856 5854 5853 5852 5851 5850 5849 5848 5847 5846 5844 5843
5913 5913 5915 5915 5915 5915 5913 5911 5909 5907 5906 5905 5903 5901 5900 5898 5896 5895 5893 5891 5889 5887 5885 5882 5880 5878 5876 5874 5872 5869 5867 5865 5863 5860 5858 5856 5854 5853 5851 5850 5849 5847 5846 5845 5843 5842 5841 5839 5838
5910 5910 5911 5912 5912 5912 5912 5909 5908 5905 5903 5902 5901 5899 5898 5896 5895 5893 5891 5889 5886 5884 5882 5880 5878 5876 5874 5871 5869 5867 5865 5862 5860 5858 5855 5853 5851 5850 5848 5847 5845 5843 5842 5840 5838 5837 5836 5834 5833
5906 5907 5907 5908 5908 5909 5909 5909 5904 5902 5901 5899 5898 5897 5895 5894 5892 5890 5888 5886 5884 5882 5880 5877 5875 5873 5871 5869 5866 5864 5862 5859 5857 5855 5852 5850 5848 5846 5844 5842 5841 5839 5837 5836 5834 5832 5831 5829 5828
5902 5903 5904 5905 5904 5904 5904 5906 5900 5899 5897 5896 5895 5894 5892 5891 5889 5887 5885 5883 5881 5878 5876 5874 5872 5870 5868 5866 5863 5861 5859 5856 5854 5851 5849 5846 5844 5842 5840 5838 5836 5835 5833 5831 5829 5827 5825 5824 5822